COOK1: Arkansas River Nr Coolidge, KS

                                SHEF ID:       COOK1     ARKANSAS R NR COOLIDGE, KS
STATION TYPE:
Regulating: Stage = 8.00, Flow = 2050

PRECIP STAGE STAGE(2) RIV-FLOW WTR-TEMP CONDUCT BAT-LOAD
in ft ft cfs F umho/cm volt
Ccp-Rev Ccp-Rev Ccp-Rev Ccp-Rev Ccp-Rev Ccp-Rev Ccp-Rev
(America/Chicago)
06/21 00:00 0.00 2.54 2.62 57 72.84 5827 12.95
06/21 01:00 0.00 2.54 2.62 57 71.80 5839 12.95
06/21 02:00 0.00 2.54 2.62 57 70.95 5839 12.95
06/21 03:00 0.00 2.55 2.62 58 70.21 5827 12.89
06/21 04:00 0.00 2.54 2.62 57 69.51 5812 12.89
06/21 05:00 0.00 2.54 2.63 57 68.67 5803 12.89
06/21 06:00 0.00 2.54 2.63 57 67.98 5794 12.89
06/21 07:00 0.00 2.54 2.63 57 67.48 5776 12.89
06/21 08:00 0.00 2.54 2.63 57 67.48 5755 12.89
06/21 09:00 0.00 2.51 2.63 55 68.43 5749 12.95
06/21 10:00 0.00 2.54 2.64 57 70.54 5728 13.12
06/21 11:00 0.00 2.55 2.64 58 72.82 5713 13.53
06/21 12:00 0.00 2.56 2.63 59 75.24 5708 13.77
06/21 13:00 0.00 2.54 2.64 57 77.47 5706 13.71
06/21 14:00 0.00 2.55 2.65 58 78.55 5697 13.59
06/21 15:00 0.00 2.56 2.66 59 79.95 5701 13.83
06/21 16:00 0.00 2.57 2.67 60 80.28 5688 13.36
06/21 17:00 0.00 2.59 2.68 62 79.93 5639 13.24
06/21 18:00 0.00 2.57 2.68 60 79.34 5578 13.24
06/21 19:00 0.00 2.59 2.68 62 77.95 5533 13.18
06/21 20:00 0.00 2.60 2.67 63 76.84 5513 13.12
06/21 21:00 0.00 2.59 2.68 62 75.74 5495 13.07
06/21 22:00 0.00 2.59 2.67 62 74.82 5486 13.00
06/21 23:00 ---- ---- ---- ---- ---- ---- ----
Data processed at Sat 22Jun2024 04:30 GMT

Parsing this webpage?

Checkout our new Data API! CWMSDataAPI (CDA)

Timeseries IDs (TSIDs)

TSIDs used from left to right in the data table
COOL.Precip-Inc.Total.1Hour.1Hour.Ccp-Rev
COOL.Stage.Inst.1Hour.0.Ccp-Rev
COOL.Stage-Alt.Inst.1Hour.0.Ccp-Rev
COOL.Flow.Inst.1Hour.0.Ccp-Rev
COOL.Temp-Water.Inst.1Hour.0.Ccp-Rev
COOL.Cond.Inst.1Hour.0.Ccp-Rev
COOL.Volt-Battery Load.Inst.1Hour.0.Ccp-Rev

                            

All information presented herein is the property of the government of the United States of America and may be revised or deleted at any time without prior notice. Dissemination of this information without the expressed written consent of the Public Affairs Office, Tulsa District U.S. Army Corps of Engineers is strictly prohibited. These data are gathered electronically and, as presented, have NOT undergone any form of quality control. These data are NOT guaranteed to be valid or correct.